This is the latest recevied weather packets stored in our database for station/object WY7EM. If no packets are shown the sender has not sent any weather packets the latest 10 day(s).
| Time | Temp. | Humidity | Pressure | Rain* | Wind** | Luminosity | Snow |
|---|---|---|---|---|---|---|---|
| 1777950354 | 20° C | 23% | 1008 hPa | 0 mm | - | 0 W/m² | - |
| 1777950049 | 20° C | 22% | 1007.8 hPa | 0 mm | - | 0 W/m² | - |
| 1777949745 | 20° C | 22% | 1007.8 hPa | 0 mm | - | 0 W/m² | - |
| 1777949445 | 20° C | 22% | 1007.7 hPa | 0 mm | - | 0 W/m² | - |
| 1777949141 | 20.56° C | 22% | 1007.8 hPa | 0 mm | - | 0 W/m² | - |
| 1777948838 | 20.56° C | 22% | 1007.7 hPa | 0 mm | - | 0 W/m² | - |
| 1777948535 | 20.56° C | 22% | 1007.4 hPa | 0 mm | - | 0 W/m² | - |
| 1777948233 | 20.56° C | 22% | 1007.7 hPa | 0 mm | - | 0 W/m² | - |
| 1777947930 | 20.56° C | 23% | 1007.7 hPa | 0 mm | - | 1 W/m² | - |
| 1777947627 | 20.56° C | 23% | 1007.6 hPa | 0 mm | - | 2 W/m² | - |
| 1777947324 | 21.11° C | 24% | 1007.6 hPa | 0 mm | - | 4 W/m² | - |
| 1777947021 | 21.11° C | 23% | 1007.4 hPa | 0 mm | - | 7 W/m² | - |
| 1777946720 | 21.11° C | 23% | 1007.4 hPa | 0 mm | - | 10 W/m² | - |
| 1777946418 | 21.11° C | 23% | 1007.4 hPa | 0 mm | - | 11 W/m² | - |
| 1777946115 | 21.11° C | 24% | 1007.4 hPa | 0 mm | - | 14 W/m² | - |
| 1777945812 | 21.11° C | 24% | 1007.7 hPa | 0 mm | - | 17 W/m² | - |
| 1777945509 | 21.11° C | 23% | 1007.3 hPa | 0 mm | - | 25 W/m² | - |
| 1777945206 | 21.11° C | 23% | 1007.4 hPa | 0 mm | - | 30 W/m² | - |
| 1777944903 | 21.11° C | 23% | 1007.2 hPa | 0 mm | - | 37 W/m² | - |
| 1777944600 | 21.67° C | 23% | 1007.3 hPa | 0 mm | - | 48 W/m² | - |
| 1777944298 | 21.67° C | 22% | 1007.3 hPa | 0 mm | - | 49 W/m² | - |
| 1777943995 | 21.67° C | 22% | 1007.4 hPa | 0 mm | - | 54 W/m² | - |
| 1777943690 | 21.67° C | 22% | 1007.6 hPa | 0 mm | - | 65 W/m² | - |
| 1777943387 | 21.67° C | 22% | 1007.4 hPa | 0 mm | - | 69 W/m² | - |
| 1777943083 | 21.67° C | 21% | 1007.4 hPa | 0 mm | - | 71 W/m² | - |
* Rain latest hour (hover to see other rain measurements)
** Current wind speed in m/s (hover to see current wind gust speed)